User: anonymous   Login
Location: Unspecified
(0.0000°N, 0.0000°E)
Time: 03:37:06
(UTC+01:00)
Language:

NOSS 3-3 (A) - Orbit

View from above orbital plane
View from above orbital plane
View from above satellite
View from above satellite

Ground track
Ground track

The orbit data is extracted from the following two-line orbital elements,

1 28537U 05004A   14292.11041173 0.00000000  00000-0  00000-0 0    03
2 28537  63.4307 144.8122 0184000 359.2133   0.7867 13.40661768    01
Epoch (UTC): 19 October 2014 02:38:59
Eccentricity: 0.0184000
inclination: 63.4307°
perigee height: 969 km
apogee height: 1244 km
right ascension of ascending node: 144.8122°
argument of perigee: 359.2133°
revolutions per day: 13.40661768
mean anomaly at epoch: 0.7867°
orbit number at epoch: 0

The dashed part of the orbit path shows where the satellite is in the earth's shadow,  

DLR